User: anonymous   Login
Location: Caltech
(34.1382°N, 118.1253°W)
Time: 10:11:49
(UTC-07:00)
Language:

SO-50 - Orbit

View from above orbital plane
View from above orbital plane
View from above satellite
View from above satellite

Ground track
Ground track

The orbit data is extracted from the following two-line orbital elements,

1 27607U 02058C   15245.54332915  .00000253  00000-0  56630-4 0  9990
2 27607  64.5562 322.5781 0083183 273.4626  85.6965 14.74829197682695
Epoch (UTC): 02 September 2015 13:02:23
Eccentricity: 0.0083183
inclination: 64.5562°
perigee height: 587 km
apogee height: 704 km
right ascension of ascending node: 322.5781°
argument of perigee: 273.4626°
revolutions per day: 14.74829197
mean anomaly at epoch: 85.6965°
orbit number at epoch: 68269

The dashed part of the orbit path shows where the satellite is in the earth's shadow,  

DLR